This demonstration page uses our WeatherBlox Daily Observations layout. Learn more.

Left ArrowRight Arrow

36.17497, -115.13722

Hourly Observations for August 6, 2021

Temp ( °F °C ) Dew Point ( °F °C ) Humidity (%) Winds ( mph kmh ) Pressure ( in mb ) Visibility ( mi km ) Precip ( " mm )
12:53 am 00:53 Clear 98 36.7 34 1.1 11 11 SSW 13 20 29.75 1007 10 16 0.00 0.00
1:53 am 01:53 Clear 95 35 35 1.7 12 12 WSW 7 11 29.75 1007 10 16 0.00 0.00
2:53 am 02:53 Clear 93 33.9 37 2.8 14 14 S 8 13 29.75 1008 10 16 0.00 0.00
3:53 am 03:53 Clear 93 33.9 37 2.8 14 14 S 12 19 29.76 1008 10 16 0.00 0.00
4:53 am 04:53 Clear 92 33.3 37 2.8 14 14 S 9 15 29.77 1008 10 16 0.00 0.00
5:53 am 05:53 Sunny 90 32.2 34 1.1 14 14 S 12 19 29.76 1008 10 16 0.00 0.00
6:53 am 06:53 Sunny 90 32.2 38 3.3 16 16 NW 12 19 29.79 1009 10 16 0.00 0.00
7:53 am 07:53 Sunny 92 33.3 38 3.3 15 15 NNW 8 13 29.82 1010 10 16 0.00 0.00
8:53 am 08:53 Sunny 96 35.6 37 2.8 13 13 ENE 5 7 29.83 1010 10 16 0.00 0.00
9:53 am 09:53 Sunny 99 37.2 33 0.6 10 10 NNE 5 7 29.83 1010 10 16 0.00 0.00
10:53 am 10:53 Sunny 102 38.9 8 -13.3 3 3 SW 15 24 29.83 1010 10 16 0.00 0.00
11:53 am 11:53 Sunny 103 39.4 4 -15.6 2 2 SW 17 28 29.82 1010 10 16 0.00 0.00
12:53 pm 12:53 Sunny 106 41.1 6 -14.4 2 2 SW 16 26 29.80 1009 10 16 0.00 0.00
1:53 pm 13:53 Sunny 105 40.6 11 -11.7 3 3 S 15 24 29.79 1009 10 16 0.00 0.00
2:53 pm 14:53 Sunny 107 41.7 5 -15 2 2 SSW 16 26 29.78 1008 10 16 0.00 0.00
3:53 pm 15:53 Sunny 107 41.7 7 -13.9 2 2 S 18 30 29.75 1008 10 16 0.00 0.00
4:53 pm 16:53 Sunny 106 41.1 7 -13.9 3 3 SW 17 28 29.74 1007 10 16 0.00 0.00
5:53 pm 17:53 Sunny 106 41.1 8 -13.3 3 3 SW 16 26 29.73 1007 10 16 0.00 0.00
6:53 pm 18:53 Sunny 104 40 10 -12.2 3 3 SW 15 24 29.73 1007 10 16 0.00 0.00
7:53 pm 19:53 Clear with Blowing Dust 101 38.3 13 -10.6 4 4 W 10 17 29.75 1007 10 16 0.00 0.00
8:53 pm 20:53 Clear with Blowing Dust 100 37.8 10 -12.2 3 3 WNW 9 15 29.77 1008 7 11 0.00 0.00
9:53 pm 21:53 Clear with Blowing Dust 97 36.1 14 -10 5 5 VRB 5 7 29.79 1009 10 16 0.00 0.00
10:53 pm 22:53 Clear with Blowing Dust 94 34.4 17 -8.3 6 6 Calm 29.80 1009 10 16 0.00 0.00
11:53 pm 23:53 Clear with Blowing Dust 88 31.1 27 -2.8 11 11 W 7 11 29.80 1009 10 16 0.00 0.00

Powered by AerisWeather